Lewiston, WA

10:11 AM PDT on July 22, 2017 (GMT -0700)
Lewiston-Nez Perce County

Weather History for KLWS - October, 2014

Change the Weather History Date:

Thursday, October 9, 2014

  Actual Average Record
Temperature  
Mean Temperature 63 °F 55 °F  
Max Temperature 77 °F 66 °F 89 °F (1934)
Min Temperature 48 °F 43 °F 23 °F (1985)
Degree Days  
Heating Degree Days 2 11  
Month to date heating degree days 35 80  
Since 1 July heating degree days 55 194  
Cooling Degree Days 0 0  
Month to date cooling degree days 14 1  
Year to date cooling degree days 1095 805  
Growing Degree Days 12 (Base 50)    
Moisture  
Dew Point 39 °F    
Average Humidity 44    
Maximum Humidity 61    
Minimum Humidity 27    
Precipitation  
Precipitation 0.00 in 0.03 in 0.51 in (2004)
Month to date precipitation 0.00 0.24  
Year to date precipitation 7.92 9.44  
Snow  
Snow 0.00 in 0.00 in 0.00 in (1995)
Month to date snowfall 0.0 0.0  
Since 1 July snowfall 0.0 0.0  
Since 1 September snowfall 0.0 0.0  
Snow Depth 0.00 in    
Sea Level Pressure  
Sea Level Pressure 30.00 in    
Wind  
Wind Speed 3 mph (SSW)    
Max Wind Speed 9 mph    
Max Gust Speed 11 mph    
Visibility 10 miles    
Events      
T = Trace of Precipitation, MM = Missing Value Source: NWS Daily Summary

Daily Weather History Graph

Daily Weather History Graph

Search for Another Location

Airport or City:

Trip Planner

Search our weather history database for the weather conditions in past years. The results will help you decide how hot, cold, wet, or windy it might be!

Date:

Astronomy

Oct. 09, 2014 Rise Set
Actual Time 6:57 AM PDT 6:12 PM PDT
Civil Twilight 6:27 AM PDT 6:42 PM PDT
Nautical Twilight 5:52 AM PDT 7:17 PM PDT
Astronomical Twilight 5:17 AM PDT 7:52 PM PDT
Moon 7:05 PM PDT (10/9) 8:22 AM PDT (10/9)
Length of Visible Light 12h 15m
Length of Day
11h 15m
Full, 98% of the Moon is Illuminated
Oct 9
Full
Oct 15
Last Quarter
Oct 23
New
Oct 30
First Quarter
Nov 6
Full

Hourly Weather History & Observations

Time (PDT) Temp. Dew Point Humidity Pressure Visibility Wind Dir Wind Speed Gust Speed Precip Events Conditions
12:56 AM 57.0 °F 34.0 °F 42% 29.96 in 10.0 mi South 3.5 mph - N/A   Clear
1:56 AM 54.0 °F 34.0 °F 47% 29.97 in 10.0 mi Calm Calm - N/A   Clear
2:56 AM 53.1 °F 35.1 °F 50% 29.97 in 10.0 mi South 4.6 mph - N/A   Clear
3:56 AM 52.0 °F 35.1 °F 53% 29.98 in 10.0 mi Calm Calm - N/A   Clear
4:56 AM 51.1 °F 36.0 °F 56% 29.99 in 10.0 mi Calm Calm - N/A   Clear
5:56 AM 48.0 °F 35.1 °F 61% 30.01 in 10.0 mi Calm Calm - N/A   Clear
6:56 AM 50.0 °F 36.0 °F 59% 30.02 in 10.0 mi Calm Calm - N/A   Clear
7:56 AM 50.0 °F 37.0 °F 61% 30.04 in 10.0 mi Calm Calm - N/A   Clear
8:56 AM 55.9 °F 41.0 °F 57% 30.04 in 10.0 mi Variable 3.5 mph - N/A   Clear
9:56 AM 59.0 °F 42.1 °F 53% 30.05 in 10.0 mi ENE 4.6 mph - N/A   Clear
10:56 AM 62.1 °F 41.0 °F 46% 30.05 in 10.0 mi North 4.6 mph - N/A   Clear
11:56 AM 64.9 °F 39.9 °F 40% 30.04 in 10.0 mi Calm Calm - N/A   Clear
12:56 PM 70.0 °F 42.1 °F 36% 30.02 in 10.0 mi Calm Calm - N/A   Clear
1:56 PM 73.0 °F 42.1 °F 33% 29.99 in 10.0 mi Variable 5.8 mph - N/A   Clear
2:56 PM 75.0 °F 39.9 °F 28% 29.98 in 10.0 mi Calm Calm - N/A   Clear
3:56 PM 75.9 °F 39.0 °F 26% 29.97 in 10.0 mi Calm Calm - N/A   Clear
4:56 PM 75.0 °F 39.9 °F 28% 29.97 in 10.0 mi West 8.1 mph - N/A   Clear
5:56 PM 71.1 °F 39.0 °F 31% 29.98 in 10.0 mi West 4.6 mph - N/A   Clear
6:56 PM 69.1 °F 41.0 °F 36% 29.98 in 10.0 mi WNW 6.9 mph - N/A   Clear
7:56 PM 64.9 °F 39.9 °F 40% 29.99 in 10.0 mi South 6.9 mph - N/A   Clear
8:56 PM 63.0 °F 39.9 °F 43% 29.99 in 10.0 mi South 6.9 mph - N/A   Clear
9:56 PM 61.0 °F 39.9 °F 46% 30.01 in 10.0 mi South 5.8 mph - N/A   Clear
10:56 PM 59.0 °F 39.9 °F 49% 30.01 in 10.0 mi South 4.6 mph - N/A   Clear
11:56 PM 55.9 °F 39.0 °F 53% 30.02 in 10.0 mi Calm Calm - N/A   Clear